Delta Junction, AK

3:09 PM AKST on February 06, 2016 (GMT -0900)
Allen Army Air Field

Weather History for PABI - November, 2012

Change the Weather History Date:

Monday, November 19, 2012

  Actual Average Record
Temperature  
Mean Temperature -8 °F -  
Max Temperature -2 °F 14 °F 39 °F (2014)
Min Temperature -15 °F 4 °F -36 °F (2011)
Degree Days  
Heating Degree Days 74    
Moisture  
Dew Point -17 °F    
Average Humidity 59    
Maximum Humidity 79    
Minimum Humidity 33    
Precipitation  
Precipitation 0.00 in - - ()
Sea Level Pressure  
Sea Level Pressure 30.04 in    
Wind  
Wind Speed 14 mph (ESE)    
Max Wind Speed 21 mph    
Max Gust Speed -    
Visibility 10 miles    
Events      
Averages and records for this station are not official NWS values.
T = Trace of Precipitation, MM = Missing Value Source: NWS Daily Summary

Daily Weather History Graph

Daily Weather History Graph

Search for Another Location

Airport or City:

Trip Planner

Search our weather history database for the weather conditions in past years. The results will help you decide how hot, cold, wet, or windy it might be!

Date:

Astronomy

Nov. 19, 2012 Rise Set
Actual Time 9:25 AM AKST 3:30 PM AKST
Civil Twilight 8:22 AM AKST 4:33 PM AKST
Nautical Twilight 7:21 AM AKST 5:34 PM AKST
Astronomical Twilight 6:24 AM AKST 6:31 PM AKST
Moon 1:33 PM AKST (11/19) 11:17 PM AKST (11/19)
Length of Visible Light 8h 10m
Length of Day
6h 05m
Waxing Crescent, 42% of the Moon is Illuminated
Nov 19
Waxing Crescent
Nov 20
First Quarter
Nov 28
Full
Dec 6
Last Quarter
Dec 12
New

Hourly Weather History & Observations

Time (AKST) Temp. Windchill Dew Point Humidity Pressure Visibility Wind Dir Wind Speed Gust Speed Precip Events Conditions
12:53 AM -4.0 °F -26.4 °F -14.1 °F 62% 29.95 in 10.0 mi ESE 18.4 mph - N/A   Clear
1:53 AM -4.0 °F -26.4 °F -14.1 °F 62% 29.96 in 10.0 mi East 18.4 mph - N/A   Clear
2:53 AM -4.0 °F -27.6 °F -14.1 °F 62% 29.97 in 10.0 mi ESE 20.7 mph - N/A   Clear
3:53 AM -6.0 °F -22.6 °F -15.0 °F 65% 29.99 in 10.0 mi ESE 9.2 mph - N/A   Clear
4:53 AM -5.1 °F -24.3 °F -15.0 °F 62% 30.00 in 10.0 mi ESE 12.7 mph - N/A   Clear
5:53 AM -6.0 °F -22.6 °F -16.1 °F 62% 30.01 in 10.0 mi East 9.2 mph - N/A   Clear
6:53 AM -6.0 °F -25.5 °F -16.1 °F 62% 30.02 in 10.0 mi ESE 12.7 mph - N/A   Partly Cloudy
7:53 AM -5.1 °F -24.3 °F -16.1 °F 59% 30.03 in 10.0 mi East 12.7 mph - N/A   Partly Cloudy
8:53 AM -5.1 °F -25.9 °F -17.0 °F 57% 30.04 in 10.0 mi East 15.0 mph - N/A   Partly Cloudy
9:53 AM -4.0 °F -23.7 °F -17.0 °F 54% 30.06 in 10.0 mi East 13.8 mph - N/A   Clear
10:53 AM -4.0 °F -25.8 °F -17.0 °F 54% 30.07 in 10.0 mi ESE 17.3 mph - N/A   Clear
11:53 AM -4.0 °F -24.5 °F -17.0 °F 54% 30.07 in 10.0 mi ESE 15.0 mph - N/A   Partly Cloudy
12:53 PM -2.9 °F -23.8 °F -18.0 °F 49% 30.06 in 10.0 mi East 16.1 mph - N/A   Partly Cloudy
1:53 PM -2.9 °F -21.6 °F -18.0 °F 49% 30.05 in 10.0 mi East 12.7 mph - N/A   Partly Cloudy
2:53 PM -4.0 °F -23.7 °F -18.0 °F 51% 30.04 in 10.0 mi East 13.8 mph - N/A   Mostly Cloudy
3:53 PM -5.1 °F -22.5 °F -17.0 °F 57% 30.05 in 10.0 mi East 10.4 mph - N/A   Scattered Clouds
4:53 PM -7.1 °F -22.8 °F -17.0 °F 62% 30.05 in 10.0 mi ENE 8.1 mph - N/A   Mostly Cloudy
5:53 PM -7.1 °F -18.1 °F -17.0 °F 62% 30.06 in 10.0 mi East 4.6 mph - N/A   Overcast
6:53 PM -8.0 °F -23.9 °F -18.0 °F 61% 30.08 in 10.0 mi East 8.1 mph - N/A   Scattered Clouds
7:53 PM -15.0 °F -27.4 °F -20.9 °F 75% 30.09 in 10.0 mi SW 4.6 mph - N/A   Scattered Clouds
8:53 PM -15.0 °F -31.0 °F -20.9 °F 75% 30.08 in 10.0 mi SW 6.9 mph - N/A   Mostly Cloudy
9:53 PM -14.1 °F -26.3 °F -20.0 °F 75% 30.08 in 10.0 mi SW 4.6 mph - N/A   Overcast
10:53 PM -14.1 °F -28.3 °F -18.9 °F 79% 30.07 in 10.0 mi SW 5.8 mph - N/A   Mostly Cloudy
11:53 PM -15.0 °F -29.3 °F -20.9 °F 75% 30.08 in 10.0 mi SW 5.8 mph - N/A   Partly Cloudy